Tracking 35280 objects as of 7-Sep-2026
HD Live streaming from Space Station
objects crossing your sky now

SL-12 DEB

Track SL-12 DEB now!
10-day predictions


NORAD ID: 29458
Int'l Code: 1989-039DC
Launch date: May 31, 1989
Source: Commonwealth of Independent States (former USSR) (CIS)
Launch site: TYURATAM MISSILE AND SPACE COMPLEX (TTMTR)

Note: This is SATELLITE DEBRIS
Your satellite tracking list
Your tracking list is empty




NASA's NSSDC Master Catalog

Two Line Element Set (TLE):
1 29458U 89039DC  16186.38234970 -.00000005  00000-0  00000+0 0  9990
2 29458  65.1921 148.0048 4649432 147.4425   0.8013  4.64349342160613
Source of the keplerian elements: AFSPC